Location: Cazavet
(43.0017°N, 1.0431°E)
Time: 23:34:04
(UTC+00:00)

IRS-1D - Pass Details

Date: 18 January 2026
Orbit: 737 x 810 km, 98.8° (Epoch: 13 February)

Event Time Altitude Azimuth Distance (km) Brightness Sun altitude
Rises 05:18:10 0° 11° (NNE) 3,336 6.9 -22.4°
Reaches altitude 10° 05:20:31 10° 10° (N) 2,404 6.1 -22.0°
Maximum altitude 05:25:50 72° 287° (WNW) 852 3.5 -21.1°
Drops below altitude 10° 05:31:05 10° 204° (SSW) 2,381 5.9 -20.1°
Sets 05:33:24 0° 202° (SSW) 3,302 6.7 -19.7°
